Tracking 29040 objects as of 15-Jun-2024
HD Live streaming from Space Station
objects crossing your sky now

STARLINK-3942

Track STARLINK-3942 now!
10-day predictions
STARLINK-3942 is classified as:


NORAD ID: 52563
Int'l Code: 2022-051AG
Perigee: 546.1 km
Apogee: 547.7 km
Inclination: 53.2 °
Period: 95.4 minutes
Semi major axis: 6917 km
RCS: Unknown
Launch date: May 13, 2022
Source: United States (US)
Launch site: AIR FORCE WESTERN TEST RANGE (AFWTR)
Your satellite tracking list
Your tracking list is empty




NASA's NSSDC Master Catalog

Two Line Element Set (TLE):
1 52563U 22051AG  24166.51158628  .00000771  00000-0  66500-4 0  9992
2 52563  53.2170  96.5682 0001173  88.4351 271.6775 15.08836141115782
Source of the keplerian elements: AFSPC